ATLAS 5 CENTAUR DEB, 46607

Orbit data source: Space-Track

ATLAS 5 CENTAUR DEB, 46607 is space debris in HEO originally from a launch on Wed, 17 Oct 2018 UTC launched from the Air Force Eastern Test Range (AFETR). Debris objects in space refer to the collection of defunct objects orbiting the Earth. Examples of debris include non-operational satellites, rocket bodies, and fragments generated from explosions, collisions, or faulty payload assembly.

Loading next visibility...
Identifier
46607, 2018-079CF
Orbit
HEO
Country
Flag of USUS
Related business
Flag of USUnited Launch Alliance/Lockheed Martin (US)
Manufacturer
ULA Decatur
Mission
Spacecraft
Bus & Motor
Unknown
Mass
Unknown
Launch date (UTC)
2018-10-17 (8 years ago)
Launch vehicle
Unknown
Launch site
Air Force Eastern Test Range (AFETR)
Object type
Payload
Rocket body
Debris
Shape & HBR
Unknown shape, 1.1 m
Radar Cross Section
RCS unknown

Expand to show TLE details & history
Last TLE update: 2 days ago

TLE from 2 days ago
0 ATLAS 5 CENTAUR DEB
1 46607U 18079CF  26253.59460109 -.00000111  00000-0  00000-0 0  9994
2 46607  13.1456 339.1043 4587498  88.8005 321.3907  2.05128260 52202
Epoch: 2026-09-10T14:16Z
TLE epoch observation values (Epoch: 2026-09-10T14:16:13.534Z)
Latitude
0.00002°
Longitude
135.44925°
Altitude
14,098.211 km
Speed
4.868 km/s
True Right ascension
22h 36m 32s
True Declination
0° 00' 00"
Sunlit
Object was in full shadow at epoch
Visualization orbit readout
Latitude
Unknown
Longitude
Unknown
Altitude
Unknown
Speed
Unknown
Apparent Right ascension
Unknown
Apparent Declination
Unknown
Sunlit
N/A
Visualization observer readout
Local Sidereal Time
17:12:04
Azimuth
Unknown
Elevation
Unknown
Doppler factor
Unknown
Orbital elements
Apogee altitude
31,793.078 km
Perigee altitude
7,784.798 km
Semi-major axis
26,167.075 km
Eccentricity
0.45875
Inclination
13.1456°
RAAN
339.1043°
Arg. of periapsis
88.8005°
True anomaly
271.04753°
Mean anomaly
321.3907°
Eccentric anomaly
298.23338°
Mean motion
0.51276 °/min
Orbital period
702.09 mins
BSTAR
0
Loading maneuver chart data...
Computing Atmospheric mass density...

Documentation

Showing up to 5 results
|